Location: *
(46.1200°N, 11.2700°E)
Time: 06:59:22
(UTC+00:00)

Cosmos 1354 Rocket - Visible Passes

Search period start: 21 June 2021 00:00
Search period end: 01 July 2021 00:00
Orbit: 763 x 784 km, 74.0° (Epoch: 20 June)

Date Brightness Start Highest point End Pass type
(mag) Time Alt. Az. Time Alt. Az. Time Alt. Az.
21 Jun 4.6 21:11:50 10° NNW 21:17:01 49° ENE 21:20:13 22° SE visible
21 Jun 5.5 22:54:37 10° NW 22:58:53 25° W 23:00:36 21° SW visible
22 Jun 5.2 20:36:41 10° N 20:41:28 32° ENE 20:45:29 14° ESE visible
22 Jun 4.9 22:18:47 10° NW 22:23:44 39° WSW 22:25:51 27° SSW visible
23 Jun 5.7 20:01:42 10° N 20:05:50 22° NE 20:09:56 10° ESE visible
23 Jun 4.3 21:43:12 10° NNW 21:48:29 63° WSW 21:51:08 29° S visible
24 Jun 4.0 21:07:46 10° NNW 21:13:09 84° ENE 21:16:27 24° SSE visible
24 Jun 6.2 22:51:56 10° WNW 22:54:33 14° W 22:56:49 11° WSW visible
25 Jun 4.4 20:32:28 10° NNW 20:37:43 54° ENE 20:41:47 17° SE visible
25 Jun 5.8 22:15:27 10° NW 22:19:30 22° W 22:22:10 16° SW visible
26 Jun 5.0 19:57:18 10° N 20:02:12 35° ENE 20:07:03 10° SE visible
26 Jun 5.2 21:39:33 10° NW 21:44:22 35° WSW 21:47:32 19° SSW visible
27 Jun 4.5 21:03:55 10° NNW 21:09:08 56° WSW 21:12:55 18° S visible
28 Jun 4.1 20:28:27 10° NNW 20:33:50 88° WSW 20:38:21 15° SSE visible
28 Jun 6.4 22:13:05 10° WNW 22:15:09 12° W 22:17:12 10° WSW visible
29 Jun 4.3 19:53:07 10° NNW 19:58:25 59° ENE 20:03:39 10° SE visible
29 Jun 6.0 21:36:18 10° NW 21:40:06 20° W 21:43:54 10° SW visible
30 Jun 5.4 21:00:19 10° NW 21:05:00 32° W 21:09:38 10° SSW visible
